Flag for U.S.A. Weather past 2 weeks in Sheboygan, Wisconsin, U.S.A.

Now
29 °F

Clear.


Feels Like: 29 °F
Forecast: 32 / 40 °F
Wind: No wind

Location: Sheboygan County Memorial Airport


UV Index: 3 (Moderate)

Visibility: 10 mi


Pressure: 30.14 "Hg

Humidity: 89%

Dew point: 26 °F

Location of SheboyganLocation

Historic Weather in Sheboygan

°F

Sheboygan temperature yesterday

Maximum temperature yesterday: 52 °F (at 3:53 PM)
Minimum temperature yesterday: 33 °F (at 11:53 PM)
Average temperature yesterday: 44 °F

Past Weeks' High & Low Weather Summary

 TemperatureHumidityPressure
High68 °F (Apr 21, 2:53 PM)100% (Apr 9, 5:53 AM)30.47 "Hg (Apr 9, 5:53 AM)
Low20 °F (Apr 15, 4:53 AM)20% (Apr 10, 4:53 PM)29.44 "Hg (Apr 14, 4:01 AM)
Average43 °F69%30.00 "Hg
* Reported Apr 8 1:53 AM — Apr 23 1:53 AM, Sheboygan, Weather by CustomWeather, © 2014

Note: Actual official high and low records may vary slightly from our data, if they occured in-between our weather recording intervals... More about our weather records

Advertising

Historic Weather Conditions — Data for Previous 24 hours

 ConditionsComfort  
Time TempWeatherWind HumidityBarometerVisibility
1:53 AM
Apr 23
30 °FClear.3 mph96%30.14 "Hg10 mi
12:53 AM31 °FClear.No wind92%30.14 "Hg10 mi
11:53 PM
Apr 22
33 °FClear.No wind85%30.12 "Hg10 mi
10:53 PM38 °FClear.6 mph68%30.11 "Hg10 mi
9:53 PM38 °FClear.5 mph68%30.09 "Hg10 mi
8:53 PM42 °FClear.9 mph57%30.07 "Hg10 mi
7:53 PM43 °FSunny.6 mph53%30.04 "Hg10 mi
6:53 PM47 °FSunny.15 mph44%30.02 "Hg10 mi
5:53 PM49 °FSunny.13 mph44%30.01 "Hg10 mi
4:53 PM50 °FOvercast.12 mph43%30.00 "Hg10 mi
3:53 PM52 °FPartly sunny.14 mph40%29.98 "Hg10 mi
2:53 PM50 °FOvercast.15 mph44%29.98 "Hg10 mi
1:53 PM51 °FPartly sunny.18 mph42%29.98 "Hg10 mi
12:53 PM50 °FPartly sunny.13 mph48%29.97 "Hg10 mi
11:53 AM49 °FScattered clouds.18 mph50%29.96 "Hg10 mi
10:53 AM48 °FSunny.16 mph50%29.95 "Hg10 mi
9:53 AM46 °FPassing clouds.18 mph51%29.96 "Hg10 mi
8:53 AM44 °FSunny.20 mph53%29.96 "Hg10 mi
7:53 AM42 °FSunny.17 mph60%29.95 "Hg10 mi
6:53 AM40 °FClear.12 mph63%29.96 "Hg10 mi
5:53 AM39 °FClear.10 mph67%29.93 "Hg10 mi
4:53 AM39 °FClear.12 mph70%29.92 "Hg10 mi
3:53 AM41 °FClear.10 mph67%29.90 "Hg10 mi
Weather by CustomWeather, © 2014

See weather overview